Content
SEND FEEDBACK

Daily
Averages
Monthly
Summary
Philippines

QUEZON CITY, PHILIPPINES


Home > Asia > Philippines
Elevation: 46 meters     Latitude: 14 39N     Longitude: 121 03E

WEATHER
 
SELECT A DAY
Number of Records: 172,756;   Date Range: 7/1/96 - 9/18/14
 
SHARE

PRINT THIS DATA

[ ← Previous Day ]
WEATHER ALMANAC - 16 OCTOBER, 2013
[ Next Day → ]
[ °F ]   °C
Weather ElementAverageHighLow
Temperature26 °C29 °C (10:00 am)24 °C (1:00 pm)
Dewpoint25.1 °C26.1 °C (8:00 am)23.9 °C (8:00 pm)
Humidity94.5 %100 % (1:00 am)78 % (11:00 am)
Barometer980.7 hPa1015.2 hPa (10:00 pm) (7:00 pm)
Wind Speed5.6 km/h18.5 km/h (12:22 pm)
Weather ElementAverage
Visibility8.7 km
Wind DirectionSE (135 °)

Weather ElementTotal
Precipitation---
Cooling Degree Days8.2 (Base 18.3)
Growing Degree Days16.5 (Base 10)
Averaged from 31 records on 16 October, 2013
WEATHER CONDITIONS BREAKOUT
WIND DIRECTION BREAKOUT
WEATHER BY HOUR - 16 OCTOBER, 2013
[ °F ]   °C
Local TimeTemperatureDewpointHumidityBarometerVisibilityWind DirectionWind SpeedGust SpeedPrecipitationEventsConditions
1:00 AM26 °C26 °C100 %1012.2 hPa9 kmVariable3.7 km/hRainLight Rain
2:00 AM25.6 °C25.6 °C100 %1011.9 hPa9.7 kmNW (310°)3.5 km/hRainLight Rain
2:00 AM26 °C26 °C100 %1011.2 hPa9 kmNW (310°)3.7 km/hMostly Cloudy
3:00 AM26 °C26 °C100 %1011.2 hPa10 kmVariable1.9 km/hScattered Clouds
4:00 AM26 °C26 °C100 %1011.2 hPa10 kmCalmScattered Clouds
5:00 AM26.1 °C25 °C92 %1012.2 hPa9.7 kmCalmHaze
5:00 AM26 °C26 °C100 %1012.2 hPa10 kmCalmMostly Cloudy
6:00 AM26 °C26 °C100 %1012.2 hPa10 kmCalmScattered Clouds
7:00 AM26 °C26 °C100 %1013.2 hPa10 kmCalmScattered Clouds
8:00 AM27.2 °C26.1 °C91 %1014.2 hPa9.7 kmSSW (200°)3.5 km/hHaze
8:00 AM27 °C26 °C94 %1014.2 hPa10 kmSSW (200°)1.9 km/hScattered Clouds
9:00 AM28 °C25 °C84 %1014.2 hPa10 kmWest (280°)7.4 km/hMostly Cloudy
10:00 AM29 °C25 °C79 %1014.2 hPa10 kmWNW (290°)14.8 km/hScattered Clouds
11:00 AM28.3 °C25 °C78 %1013.9 hPa8 kmNW (310°)18 km/hHaze
11:00 AM29 °C25 °C79 %1013.2 hPa8 kmNW (310°)16.7 km/hMostly Cloudy
12:00 PM29 °C25 °C79 %1013.2 hPa9 kmWNW (300°)13 km/hMostly Cloudy
12:22 PM26 °C25 °C94 %1013.2 hPa10 kmEast (90°)18.5 km/hRainLight Rain Showers
1:00 PM24 °C24 °C100 %1013.2 hPa4 kmEast (90°)13 km/hRainHeavy Rain
2:00 PM25 °C25 °C100 %1012.2 hPa9 kmEast (90°)7.4 km/hRainLight Rain
3:00 PM25 °C25 °C100 %1012.2 hPa8 kmEast (80°)11.1 km/hRainLight Rain
4:00 PM25 °C25 °C100 %1011.2 hPa8 kmCalmRainLight Rain
5:00 PM25.6 °C25.6 °C99 %1012.5 hPa8 kmSouth (180°)3.5 km/hRainLight Rain
5:00 PM25 °C25 °C100 %1012.2 hPa8 kmSouth (180°)3.7 km/hMostly Cloudy
6:00 PM25 °C25 °C100 %1013.2 hPa6.9 kmSE (130°)5.6 km/hRainLight Rain
7:00 PM25 °C25 °C100 %1013.2 hPa6.9 kmSE (140°)3.7 km/hRainLight Rain
8:00 PM25 °C23.9 °C91 %1014.6 hPa6.4 kmSE (140°)3.5 km/hRainLight Rain
8:00 PM25 °C24 °C94 %6.9 kmSE (140°)3.7 km/hOvercast
9:00 PM25 °C24 °C94 %1014.2 hPa8 kmSSE (160°)5.6 km/hMostly Cloudy
10:00 PM25 °C24 °C94 %1015.2 hPa9 kmCalmMostly Cloudy
11:00 PM25 °C23.9 °C92 %1015.2 hPa9.7 kmENE (60°)3.5 km/hHaze
11:00 PM25 °C24 °C94 %1015.2 hPa10 kmENE (60°)3.7 km/hMostly Cloudy
Hourly data recorded from RPLL, located 0 kilometers away from Quezon City, Philippines







STORIES FROM OUR PARTNERS